sat.trackr.live / text

‹ back to catalog

STARLINK-30456

NORAD 57943 · 2023-148J

PAYLOAD ACTIVE UNKNOWN

§ Identity

Operator
Country
US
Launch date
2023-09-25
Launch site
AFWTR
Launch vehicle
Mass (kg)
RCS (m²)

Purposes: comms

External: N2YO · Heavens-Above · Gunter

§ Orbital elements

Epoch: 2026-09-19T11:45:03.940416Z

Period
93.85 min
Inclination
53.1597°
Eccentricity
0.0001282
Mean motion
15.34392909 rev/d
Perigee alt
461.8 km
Apogee alt
463.6 km
Semi-major
6,840.9 km
B*
-4.9092e-5
RAAN
202.7066°
Arg perigee
98.7118°
Mean anomaly
261.4029°
Rev number
16,811

§ Raw data

STARLINK-304561 57943U 23148J   26262.48962894 -.00002034  00000+0 -49092-4 0  99922 57943  53.1597 202.7066 0001282  98.7118 261.4029 15.34392909168116

JSON: /api/v1/satellites/57943 · /tle

For live sub-satellite position, see the globe view (requires WebGL).

§ Visibility from observer

Set your observer location to see the next 7 days of passes ≥ 10°. The values pass through the URL so the page stays shareable.

No JS? Fill the form by hand. The geolocation button needs JavaScript.